Regional Weather Roundup
Issued by NWS Portland, ME

Current Version | Previous Version | Text Only | Print | Product List | Glossary Off
Versions: 1 2 3 4 5 6 7 8 9 10 11 12 13 14 15 16 17 18 19 20 21 22 23 24 25 26 27 28 29 30 31 32 33 34 35 36 37 38 39 40 41 42 43 44 45 46 47 48 49 50
000 ASUS41 KGYX 210505 RWRGYX WEATHER ROUNDUP FOR MAINE AND NEW HAMPSHIRE NATIONAL WEATHER SERVICE GRAY ME 100 AM EDT SAT APR 21 2018 MEZ002-005-006-010-012-015-018-020-021-024-026-027-029-210600- MAINE CITY SKY/WX TMP DP RH WIND PRES REMARKS PORTLAND FAIR 38 29 70 VRB7 30.20S SANFORD MOCLDY 38 28 67 W7 30.21S BAR HARBOR CLOUDY 39 33 79 VRB5 30.12S WISCASSET FAIR 40 31 70 VRB5 30.17F ROCKLAND MOCLDY 40 32 73 NW6 30.15R FRYEBURG CLOUDY 39 29 67 NW7 30.20S LEWISTONAUBURN FAIR 38 28 67 NW6 30.18S AUGUSTA CLOUDY 40 28 62 NW9 30.16S WATERVILLE MOCLDY 40 28 62 NW6 30.13S BANGOR CLOUDY 41 32 70 NW10 30.13R GREENVILLE N/A 33 29 85 NW9 30.08S MILLINOCKET MOCLDY 37 30 75 NW3 30.12R HOULTON FAIR 35 28 75 NW5 30.06R PRESQUE ISLE FAIR 35 29 78 W7 30.07S FRENCHVILLE FAIR 35 27 72 NW9 30.04S CARIBOU MOCLDY 36 29 75 NW10 30.05S $$ NHZ002-005-008-009-011-012-014-210600- NEW HAMPSHIRE CITY SKY/WX TMP DP RH WIND PRES REMARKS PORTSMOUTH MOCLDY 39 27 60 W8 30.21S ROCHESTER MOCLDY 38 28 67 VRB6 30.21S NASHUA FAIR 40 27 59 NW10 30.25S MANCHESTER FAIR 42 25 50 W7 30.23S CONCORD FAIR 38 27 64 NW10 30.25R LACONIA CLOUDY 37 28 70 SW7 30.23F PLYMOUTH CLOUDY 38 29 71 NW6 30.24S BERLIN CLOUDY 38 26 62 NW3 30.19S WHITEFIELD CLOUDY 34 30 85 CALM 30.21S JAFFREY CLOUDY 37 27 67 W6 30.24F KEENE CLOUDY 38 26 62 CALM 30.28S LEBANON CLOUDY 35 27 72 S3 30.25S MT WASHINGTON SNOW 14 14 100 NW54G64 N/A VSB 0 WCI -12 $$ VTZ005-007-008-210600- VERMONT CITY SKY/WX TMP DP RH WIND PRES REMARKS ST JOHNSBURY N/A 35 30 82 MISG 30.22S MONTPELIER CLOUDY 35 28 75 W5 30.27S BURLINGTON CLOUDY 41 27 57 NW3 30.27S $$ MAZ007-012-024-CTZ003-RIZ002-NYZ038-NYZ072-210600- SOUTHERN NEW ENGLAND AND NY CITY SKY/WX TMP DP RH WIND PRES REMARKS BOSTON FAIR 40 26 57 NW12 30.25S WORCESTER MOCLDY 35 24 64 W14 30.25R NANTUCKET FAIR 41 31 67 NW9 30.24R PROVIDENCE FAIR 41 26 55 W5 30.28S HARTFORD FAIR 37 26 64 NW9 30.32S ALBANY MOCLDY 38 24 57 NW16 30.34S NEW YORK CITY FAIR 42 24 49 NW12 30.37S $$ ANZ081-ANZ082-ANZ150-NHZ014-MEZ023>029-210600- COASTAL MARINE OBSERVATIONS STATION/POSITION TIME TEMP WIND PRES WAVE AIR SEA DIR/SP/G HT/PER (UTC) (F) (DEG/KT/KT) (MB) (FT/S) MOUNT DESERT ROC 0500 41 290/ 18/ 20 1019.6S MATINICUS ROCK 0400 42 300/ 18/ 20 1020.0R ISLE OF SHOALS 0400 41 290/ 14/ 16 1023.0S JEFFREYS LEDGE 0436 41 N/A 4/ 5 CASHES LEDGE BUO 0450 40 41 1021.0R 5/ 5 $$ .............KEY.............. WCI - WIND CHILL TC - TEMPERATURE IN CELSIUS VSB - VISIBILITY IN MILES HX - HEAT INDEX FAIR- INDICATES FEW OR NO CLOUDS BELOW 12,000 FT, WITH NO SIGNIFICANT WEATHER AND/OR OBSTRUCTIONS TO VISIBILITY.

USA.gov is the U.S. government's official web portal to all federal, state and local government web resources and services.